Theta_e
321 320 323 319 317 317 320 320 321 321 321 321 323 336 341 339 341 340 346 346 339 339 345 344 342 338 338 339 342 345 346 346 346 345 346 345 341 338 336 336 335 334 333 329 325 323 320 316 316
319 320 322 317 318 320 321 320 322 322 321 318 318 328 334 337 346 347 347 347 341 339 346 344 341 337 337 337 337 340 343 345 345 346 345 343 339 336 336 334 332 331 326 323 322 319 315 314 314
317 322 319 319 316 320 321 322 323 321 322 319 322 327 332 332 335 346 346 343 344 342 349 346 341 337 336 335 335 335 339 341 343 344 342 338 336 336 334 330 329 325 323 322 319 315 313 312 313
315 316 316 322 323 322 320 322 324 323 322 320 324 326 324 323 324 340 347 344 343 342 349 346 341 337 336 335 334 333 334 336 337 337 336 336 336 334 330 328 324 322 322 319 316 314 314 313 313
315 314 320 324 324 323 322 323 323 323 322 321 322 325 324 323 341 346 347 347 342 342 345 347 342 337 336 335 334 333 333 334 334 335 335 335 334 330 326 323 321 319 318 317 315 316 317 317 315
313 313 319 322 323 323 322 322 322 323 321 321 322 322 324 323 344 347 347 347 344 340 344 348 343 338 336 335 335 334 333 333 334 335 335 333 331 326 323 321 319 318 317 316 316 317 317 318 319
313 315 318 320 322 322 323 321 323 321 321 322 320 325 322 322 327 346 344 346 344 343 349 350 344 340 336 336 336 336 334 333 334 335 334 331 325 322 322 320 319 317 317 316 316 317 317 318 318
310 312 316 318 321 321 320 321 319 320 321 320 323 324 321 320 323 345 346 346 341 341 349 352 352 343 338 337 337 337 335 333 335 334 333 328 324 323 322 320 318 318 317 317 317 317 317 317 317
310 312 314 316 318 319 317 318 317 318 318 319 318 319 320 323 330 343 343 346 348 348 348 351 353 351 342 338 338 338 338 333 334 336 332 328 323 323 323 321 319 318 317 317 317 317 317 316 316
310 310 314 313 315 315 315 315 315 316 315 316 316 317 322 325 340 344 343 345 348 351 350 350 350 350 349 340 338 339 340 337 334 334 334 329 325 323 323 322 320 319 318 317 317 317 317 317 317
309 311 310 312 314 314 314 314 314 315 315 314 316 316 319 322 324 344 344 344 345 348 349 349 350 350 350 343 340 340 341 341 339 335 331 330 327 326 324 322 321 321 320 320 319 319 320 321 321
311 309 311 312 312 313 314 314 314 314 314 314 314 314 315 318 319 336 345 346 345 345 348 349 349 349 350 347 343 342 342 343 343 341 337 332 330 328 326 323 321 321 321 320 321 323 329 333 330
308 309 309 309 308 308 309 310 311 312 313 313 313 314 314 317 317 327 342 346 347 346 347 348 348 350 350 348 346 344 343 344 346 347 341 336 331 327 327 326 323 322 322 321 323 331 336 337 336
308 309 309 309 309 309 310 310 310 311 312 312 312 312 312 316 317 319 324 341 348 348 346 347 347 347 347 348 346 347 344 345 347 346 342 338 333 328 327 326 326 324 323 323 329 334 336 339 340
309 309 307 309 310 310 308 310 310 311 311 312 312 312 314 319 319 318 321 332 347 348 347 346 344 345 344 346 346 346 346 347 348 347 343 340 337 333 330 328 327 325 326 331 336 337 338 339 341
308 306 308 307 309 309 310 311 311 311 309 311 312 312 312 312 319 319 321 324 339 347 348 347 346 344 344 344 346 345 345 345 344 350 346 343 343 339 335 331 327 325 326 332 337 339 339 342 343
303 306 308 308 308 308 309 309 310 309 309 309 309 310 310 311 311 318 320 320 328 342 345 347 347 345 342 343 345 345 343 340 343 341 345 346 346 345 343 339 331 327 325 328 337 340 341 343 343
308 308 308 308 309 308 308 308 308 308 309 309 308 307 309 310 311 313 317 321 321 335 341 345 346 346 345 344 346 345 344 341 333 335 339 342 345 345 344 343 340 333 327 327 334 339 342 342 342
308 308 308 308 309 310 309 310 309 308 308 307 308 307 307 308 310 311 313 318 320 324 333 340 343 344 345 343 344 344 343 342 341 340 334 335 337 337 338 341 341 337 331 326 334 342 343 344 343
309 309 309 309 310 309 309 310 309 308 308 308 308 308 307 307 308 310 316 318 321 325 331 337 340 342 344 343 343 343 342 342 341 337 339 339 339 339 340 339 338 337 335 333 336 340 344 344 343
310 310 310 310 311 310 310 310 309 309 310 310 309 308 308 308 308 308 317 321 323 328 334 337 340 342 343 342 344 345 345 343 340 337 337 336 334 334 339 339 338 340 339 341 344 345 345 344 343
312 310 312 313 312 312 310 313 311 309 309 309 309 307 307 306 307 308 310 320 323 326 331 337 342 345 346 345 345 346 344 342 343 341 340 340 337 340 340 334 331 331 341 342 343 342 339 339 339
315 315 315 312 310 309 310 309 311 309 309 308 309 309 307 308 308 309 308 314 322 324 325 330 338 342 345 347 347 346 343 342 342 342 342 341 340 338 340 340 340 338 340 333 335 335 334 329 332
316 316 315 308 307 312 313 311 313 312 309 309 309 310 312 310 309 307 309 312 317 323 323 324 334 337 337 337 337 339 339 340 340 340 339 339 339 338 339 340 340 340 339 339 337 335 332 329 328
316 316 317 317 314 317 312 310 313 311 310 309 310 312 310 309 308 309 305 306 314 320 323 323 325 323 322 320 320 320 321 325 330 332 333 334 336 337 338 339 339 340 340 338 336 335 334 332 331
318 316 316 319 318 316 315 318 314 312 313 314 313 311 311 310 308 308 308 309 313 318 320 320 321 320 319 320 320 320 319 320 321 323 325 326 328 331 331 330 333 337 338 339 338 337 335 334 332
318 318 314 313 316 321 315 314 313 313 315 315 314 313 312 310 310 308 309 309 315 318 318 318 319 319 319 319 319 319 320 320 320 321 322 323 323 323 328 331 330 328 328 331 334 337 339 339 337
316 315 314 318 321 324 318 316 316 315 317 315 314 313 311 311 311 311 310 309 310 314 315 318 318 317 318 318 318 318 319 320 320 320 322 322 322 324 324 324 324 324 324 326 328 332 335 336 335
312 316 317 318 319 322 322 316 316 317 316 316 313 312 310 310 312 311 311 312 312 311 312 315 317 317 316 318 318 318 319 319 320 320 321 322 321 322 321 323 324 325 322 323 325 326 327 329 329
308 310 312 312 313 317 319 317 315 313 312 313 313 312 312 310 311 311 313 313 313 313 313 312 314 316 316 315 317 318 319 320 321 321 319 321 319 319 320 320 321 322 323 321 322 322 324 322 321
Wind_Speed
17 18 11 4 3 4 2 5 1 6 10 3 2 1 3 2 3 4 7 14 25 38 37 33 32 31 30 31 31 31 31 31 31 30 29 28 25 24 22 20 18 17 16 14 13 12 12 12 13
15 13 5 2 4 1 3 4 4 0 6 9 2 2 3 1 2 3 8 11 25 37 36 36 34 32 30 30 31 31 31 30 30 31 29 27 25 24 21 19 18 17 16 15 13 12 12 12 12
8 7 3 3 3 4 3 3 1 4 9 3 2 2 1 3 3 3 4 20 25 36 33 31 33 32 31 30 30 31 32 32 31 30 28 26 24 22 21 20 18 16 15 14 13 12 11 11 11
4 6 4 3 5 5 4 5 7 5 8 6 7 2 2 1 2 2 18 21 30 35 31 31 32 31 31 30 30 31 32 33 33 31 29 26 24 22 20 19 18 16 15 13 13 12 11 10 10
5 3 1 1 4 4 4 4 5 5 7 5 4 4 1 1 0 10 23 22 35 35 33 31 31 30 31 30 30 30 31 32 33 31 29 26 24 23 21 20 18 17 16 14 13 12 10 9 8
3 3 2 4 5 4 3 2 7 3 5 9 7 8 3 1 10 15 21 23 31 34 34 32 31 31 30 30 29 29 30 32 33 31 29 27 25 24 22 20 19 17 15 14 13 12 10 8 7
5 4 5 4 2 6 2 1 1 3 4 6 6 3 6 6 4 17 21 25 30 29 32 32 33 32 31 30 29 28 29 31 32 31 29 27 26 24 22 21 18 16 15 13 12 11 10 7 5
5 4 5 4 4 8 3 1 2 4 3 5 1 3 6 7 4 16 17 24 31 29 31 23 24 32 32 31 29 28 28 30 31 31 29 27 25 24 22 20 19 16 14 12 10 8 7 5 4
3 3 3 5 5 6 3 1 2 4 7 1 6 4 6 12 6 17 16 19 22 27 33 24 23 24 31 31 30 28 27 28 28 29 29 28 26 24 22 20 17 16 13 11 9 7 5 4 3
4 3 7 5 4 8 4 2 2 4 10 4 6 8 6 5 9 16 18 17 21 23 28 28 27 27 29 33 31 31 30 28 28 28 28 28 28 26 23 20 17 15 13 11 9 7 6 5 5
3 5 4 4 6 7 5 4 4 5 11 7 9 9 1 4 7 9 15 27 33 27 26 29 28 29 33 35 34 33 32 30 29 29 29 28 27 25 24 22 20 17 15 13 10 9 7 7 7
2 6 6 4 5 4 8 4 8 10 11 9 10 8 12 8 10 13 15 21 27 33 32 29 30 31 35 34 36 34 34 30 31 30 30 30 28 27 26 24 22 20 17 14 11 10 8 7 7
3 3 3 7 6 7 9 11 11 16 9 13 11 14 12 10 11 21 21 18 23 29 34 35 36 36 39 38 38 35 34 30 24 24 32 31 30 29 27 25 23 21 18 16 13 10 8 7 6
4 3 4 4 6 5 6 10 4 2 7 11 12 13 11 11 14 17 17 22 26 26 35 38 41 41 40 42 39 40 37 33 28 28 34 34 32 30 29 26 24 21 19 16 14 12 10 10 10
1 3 6 3 4 6 7 9 7 4 7 9 11 10 7 10 8 16 30 29 34 36 35 39 43 42 42 45 42 38 35 27 23 27 34 34 33 32 29 26 25 22 19 16 15 13 12 11 11
3 4 3 5 4 7 3 14 10 4 7 10 10 9 9 6 12 20 33 33 36 33 36 37 37 41 42 41 39 33 35 33 34 28 31 32 33 32 30 28 27 25 21 20 18 16 14 12 12
6 1 1 7 4 5 4 7 6 12 6 10 9 10 10 14 9 25 27 37 36 36 36 38 39 42 46 43 36 33 33 33 32 33 33 31 32 32 32 33 29 27 24 22 19 17 16 15 14
3 3 2 4 6 5 10 15 10 11 8 11 9 9 11 14 18 22 32 34 34 39 38 38 41 41 39 32 27 28 28 31 35 35 37 33 31 31 31 33 34 31 27 25 20 18 16 18 15
2 2 5 8 14 3 11 17 10 10 7 11 13 8 9 12 18 21 21 26 32 32 34 37 37 37 34 35 30 29 32 32 35 38 32 33 27 30 30 32 35 32 31 25 18 18 14 17 14
5 5 8 6 10 5 9 16 9 5 7 8 9 11 10 8 10 9 12 19 28 34 36 34 36 35 34 30 28 23 31 32 31 32 30 30 22 24 25 24 26 29 33 22 21 17 12 14 14
5 4 5 7 5 3 5 13 8 5 5 8 9 8 7 9 11 9 7 13 20 29 34 35 35 34 31 32 26 17 21 16 30 31 29 27 24 22 21 19 17 19 29 30 25 11 9 11 13
5 5 5 5 3 5 4 16 12 6 8 8 11 8 9 9 7 7 7 7 15 28 27 27 27 30 31 30 29 27 23 15 24 31 29 30 32 35 31 27 25 25 28 32 21 4 5 3 12
7 2 4 4 5 3 4 3 11 4 6 7 9 12 10 8 8 10 9 16 22 23 27 26 27 27 27 27 28 30 22 19 16 22 24 25 24 25 33 29 29 38 35 31 23 11 21 15 18
1 1 3 2 1 8 11 9 20 16 7 5 5 6 8 9 8 10 18 24 21 25 26 25 29 28 26 25 22 21 19 19 20 18 18 21 24 27 29 34 33 36 35 31 25 23 33 34 37
4 4 6 4 2 10 4 5 18 12 9 6 8 6 8 8 8 9 9 11 18 24 31 30 28 28 25 22 19 16 13 12 15 17 16 16 18 20 23 21 22 27 32 30 30 27 27 28 27
2 4 4 9 9 15 6 6 7 5 5 3 3 5 4 8 7 8 9 10 20 24 31 35 33 26 24 22 18 14 11 10 11 12 13 13 14 13 13 14 16 18 18 21 22 25 27 29 33
1 2 2 1 4 5 5 6 9 4 6 7 7 7 5 7 7 8 7 4 1 14 21 21 29 25 23 20 17 16 15 14 13 12 12 12 12 13 12 11 10 7 6 7 12 15 22 27 31
3 4 1 1 5 5 4 4 5 7 10 11 13 9 9 5 6 6 7 7 8 8 4 22 25 26 25 21 20 20 18 17 15 12 13 12 11 12 11 10 7 5 4 3 3 7 11 15 19
1 1 3 2 3 4 4 5 3 4 5 9 9 9 9 8 5 2 5 11 14 11 0 8 15 18 18 22 24 22 21 19 17 15 13 14 11 10 10 10 9 8 6 5 3 4 6 9 12
4 5 5 3 4 2 3 6 4 4 7 5 11 12 9 8 8 7 4 3 5 7 7 4 10 20 21 19 22 23 22 22 22 20 16 15 12 11 10 9 8 6 5 4 4 5 7 10 12
Wind_Direction
336 341 341 28 47 65 289 254 175 6 337 258 289 299 155 146 174 223 340 160 170 165 168 172 171 167 164 159 156 153 152 154 156 157 158 158 158 157 159 159 158 155 153 149 143 135 130 130 129
343 346 26 71 96 79 255 254 155 156 259 306 219 251 40 23 152 123 112 176 172 167 171 172 173 169 166 163 160 159 158 158 159 160 161 162 162 162 163 161 160 158 154 150 142 139 138 139 136
347 2 67 81 113 180 212 253 225 260 308 1 304 57 59 301 313 196 197 169 171 170 173 174 174 172 169 167 164 162 163 163 163 164 165 165 165 165 164 163 161 159 154 147 143 142 142 141 143
359 12 35 99 221 251 209 319 342 10 342 44 360 69 327 322 255 327 162 171 169 170 173 175 178 176 173 171 168 167 167 166 166 167 167 167 168 167 167 165 162 161 155 152 148 142 139 144 147
55 55 78 204 250 261 281 324 341 29 327 330 25 281 150 345 149 156 166 169 172 171 174 176 181 181 177 174 173 173 172 171 169 169 169 171 172 171 169 168 168 164 160 156 150 145 144 149 153
62 95 111 217 234 245 303 359 332 355 326 328 27 330 269 202 162 164 171 171 178 175 173 178 183 184 183 179 178 179 178 177 174 173 173 174 175 174 173 173 172 168 165 162 157 155 154 159 165
129 106 205 199 239 291 168 152 39 351 359 316 329 234 289 291 218 172 174 177 179 180 176 179 184 187 186 185 183 186 184 182 179 177 177 178 178 179 178 177 176 174 173 170 168 164 162 170 181
109 115 147 211 204 263 248 79 20 329 289 314 247 66 294 282 184 171 173 178 180 182 181 178 185 188 188 188 187 190 189 187 185 182 180 182 183 183 184 183 181 181 181 179 178 177 174 180 199
109 84 186 205 190 247 268 353 336 286 270 309 303 294 251 289 225 159 159 170 180 183 183 182 187 186 191 192 190 192 195 193 193 189 186 185 187 189 189 190 190 189 189 188 192 194 200 208 234
125 161 212 200 212 277 286 306 301 297 293 265 287 288 352 218 164 167 166 175 179 184 185 183 186 190 192 194 194 194 196 198 199 199 195 193 192 193 194 195 197 200 199 200 205 212 225 240 262
157 196 217 237 231 251 273 280 226 249 278 255 275 287 239 257 255 238 197 186 191 189 184 187 187 191 195 195 196 198 198 200 204 205 204 201 200 199 199 200 203 206 210 213 219 227 243 261 270
173 230 195 249 225 261 267 250 268 228 243 246 246 251 287 220 223 222 216 195 191 194 192 188 189 192 196 198 198 200 202 203 207 211 211 208 207 205 207 206 207 211 215 220 227 240 254 263 268
201 253 245 258 281 241 263 260 249 265 255 264 258 266 246 238 224 219 224 212 193 188 195 196 193 192 196 200 201 202 203 205 208 214 216 214 213 212 213 215 214 218 220 225 231 239 250 268 283
195 231 266 279 257 239 222 267 197 210 229 260 262 254 261 237 216 219 212 212 201 199 196 198 200 203 200 200 203 203 203 204 207 214 218 217 218 219 220 221 224 226 228 234 235 241 255 275 281
297 310 339 240 248 231 185 264 239 244 254 257 278 273 268 257 195 214 216 208 205 205 197 201 204 205 207 203 204 202 202 201 213 221 223 221 222 225 228 228 233 235 235 236 238 240 247 262 280
356 56 38 291 326 277 147 272 288 279 286 269 267 279 293 254 256 231 219 215 207 202 202 205 203 207 210 207 207 200 202 204 211 224 235 230 232 232 232 231 235 238 239 244 249 255 253 257 269
11 233 56 316 238 265 198 289 299 321 296 273 259 269 275 280 250 247 236 222 213 207 205 204 206 209 212 211 208 203 206 212 216 221 229 233 238 244 243 242 237 240 240 243 247 254 263 272 276
281 328 265 237 280 211 267 269 267 271 285 279 265 249 258 260 259 244 240 230 223 209 208 207 206 210 211 204 203 205 212 221 226 226 221 232 243 248 251 254 254 245 239 243 242 249 258 273 284
256 259 257 267 279 243 272 276 266 265 281 280 285 278 263 256 262 270 254 231 217 222 210 210 207 212 208 200 196 198 198 205 217 223 225 223 230 245 249 252 254 255 251 233 246 250 258 275 279
229 257 271 278 261 167 271 275 269 243 246 244 268 292 278 274 281 277 243 218 214 211 215 212 212 211 210 202 202 202 199 204 206 220 224 222 223 235 241 247 252 261 257 251 235 233 246 269 285
240 201 247 235 290 279 269 280 296 257 244 282 271 241 279 279 284 281 271 238 218 209 206 209 210 213 211 208 203 206 198 208 213 226 230 232 234 240 234 233 243 261 259 245 230 205 252 270 296
267 208 230 273 320 266 145 288 274 254 239 240 263 285 275 289 297 285 281 247 235 215 206 204 203 208 210 209 201 201 187 172 206 216 231 242 238 248 245 241 250 247 267 239 240 155 247 294 313
236 328 291 273 264 296 187 260 271 241 253 258 259 259 264 264 272 277 265 251 238 227 211 202 198 194 193 198 202 200 194 201 201 212 218 225 238 256 266 250 242 226 245 252 247 222 230 242 268
359 12 302 88 150 261 249 218 273 267 231 245 247 270 307 305 284 254 256 264 250 231 219 206 192 189 188 189 193 200 194 184 185 197 206 211 212 219 239 232 223 218 219 223 231 241 247 250 240
71 45 322 309 258 271 6 234 248 309 285 249 265 290 303 292 299 292 250 236 229 216 213 205 198 186 183 180 184 191 198 193 188 186 192 199 206 213 227 231 230 235 236 238 243 246 262 263 260
174 160 185 262 274 291 326 246 249 255 282 86 32 297 343 337 315 302 284 232 221 209 198 193 196 187 181 176 175 179 186 194 201 200 196 198 209 213 200 213 222 228 232 236 247 254 251 250 249
98 182 183 265 221 265 235 292 309 353 31 8 333 339 344 324 344 343 339 43 145 196 189 190 184 184 186 179 175 178 182 188 195 196 192 187 191 199 199 185 189 195 211 238 239 252 253 250 245
171 145 346 272 276 249 267 266 243 342 360 344 334 324 304 309 30 21 4 5 72 103 142 189 193 190 189 188 188 190 196 199 202 203 201 197 194 191 185 185 176 172 183 201 232 247 258 268 268
165 171 149 218 245 298 319 293 321 316 276 320 330 330 311 294 309 29 28 21 32 54 186 251 227 215 215 207 203 200 206 213 215 219 216 211 208 198 194 190 180 172 170 178 195 243 264 272 282
183 208 144 137 275 272 266 266 248 280 306 344 336 335 333 313 293 303 335 95 10 38 34 308 262 253 249 243 233 223 221 218 219 219 214 210 215 214 211 204 197 197 204 234 247 265 267 269 285